Weather History for KLNR - June, 2014

Change the Weather History Date:

Monday, June 16, 2014

  Actual Average Record
Temperature  
Mean Temperature 74 °F -  
Max Temperature 93 °F 76 °F 93 °F (2014)
Min Temperature 59 °F 55 °F 46 °F (1999)
Cooling Degree Days 10    
Growing Degree Days 24 (Base 50)    
Moisture  
Dew Point 62 °F    
Average Humidity 66    
Maximum Humidity 87    
Minimum Humidity 35    
Precipitation  
Precipitation 0.58 in - - ()
Sea Level Pressure  
Sea Level Pressure 29.87 in    
Wind  
Wind Speed 5 mph (SE)    
Max Wind Speed 29 mph    
Max Gust Speed 46 mph    
Visibility 8 miles    
Events Rain , Thunderstorm    
Averages and records for this station are not official NWS values.
T = Trace of Precipitation, MM = Missing Value Source: NWS Daily Summary

Daily Weather History Graph

Daily Weather History Graph

Search for Another Location

Airport or City:

Trip Planner

Search our weather history database for the weather conditions in past years. The results will help you decide how hot, cold, wet, or windy it might be!

Date:

Astronomy

Jun. 16, 2014 Rise Set
Actual Time 5:20 AM CDT 8:42 PM CDT
Civil Twilight 4:44 AM CDT 9:18 PM CDT
Nautical Twilight 3:58 AM CDT 10:04 PM CDT
Astronomical Twilight 3:00 AM CDT 11:02 PM CDT
Moon 11:27 PM CDT (6/16) 9:30 AM CDT (6/16)
Length of Visible Light 16h 33m
Length of Day
15h 22m
Waning Gibbous, 83% of the Moon is Illuminated
Jun 16
Waning Gibbous
Jun 19
Last Quarter
Jun 27
New
Jul 5
First Quarter
Jul 12
Full

Hourly Weather History & Observations

Time (CDT) Temp. Heat Index Dew Point Humidity Pressure Visibility Wind Dir Wind Speed Gust Speed Precip Events Conditions
12:56 AM 63.0 °F - 57.9 °F 84% 29.91 in 10.0 mi Calm Calm - N/A   Clear
1:56 AM 63.0 °F - 55.9 °F 78% 29.93 in 10.0 mi Calm Calm - N/A   Partly Cloudy
2:56 AM 61.0 °F - 55.0 °F 81% 29.94 in 10.0 mi Calm Calm - N/A   Clear
3:56 AM 61.0 °F - 55.9 °F 83% 29.95 in 10.0 mi Calm Calm - N/A   Clear
4:56 AM 60.1 °F - 55.0 °F 83% 29.97 in 10.0 mi Calm Calm - N/A   Clear
5:56 AM 59.0 °F - 54.0 °F 83% 29.98 in 10.0 mi Calm Calm - N/A   Clear
6:56 AM 64.9 °F - 57.9 °F 78% 29.99 in 10.0 mi Calm Calm - N/A   Clear
7:56 AM 71.1 °F - 61.0 °F 70% 29.99 in 10.0 mi East 3.5 mph - N/A   Clear
8:56 AM 77.0 °F - 63.0 °F 62% 29.99 in 10.0 mi Calm Calm - N/A   Clear
9:56 AM 82.0 °F 83.1 °F 63.0 °F 52% 29.98 in 10.0 mi Calm Calm - N/A   Clear
10:56 AM 87.1 °F 86.7 °F 60.1 °F 40% 29.96 in 10.0 mi SW 10.4 mph - N/A   Clear
11:56 AM 88.0 °F 86.9 °F 57.9 °F 36% 29.97 in 10.0 mi South 15.0 mph 19.6 mph N/A   Clear
12:56 PM 88.0 °F 87.1 °F 59.0 °F 37% 29.94 in 10.0 mi North - - N/A   Clear
1:56 PM 90.0 °F 89.1 °F 59.0 °F 35% 29.95 in 10.0 mi South 10.4 mph - N/A   Clear
2:56 PM 89.1 °F 88.2 °F 59.0 °F 36% 29.94 in 10.0 mi SSW 12.7 mph 21.9 mph N/A   Clear
3:56 PM 90.0 °F 90.0 °F 61.0 °F 38% 29.89 in 10.0 mi South 9.2 mph - N/A   Clear
4:56 PM 86.0 °F 86.3 °F 62.1 °F 44% 29.85 in 10.0 mi SE 11.5 mph - N/A   Clear
5:56 PM 86.0 °F 86.3 °F 62.1 °F 44% 29.86 in 10.0 mi SE 6.9 mph - N/A   Clear
6:56 PM 84.9 °F 86.6 °F 64.9 °F 51% 29.82 in 10.0 mi ESE 6.9 mph - N/A   Clear
7:56 PM 81.0 °F 83.3 °F 66.9 °F 62% 29.78 in 10.0 mi East 8.1 mph - N/A   Clear
8:56 PM 80.1 °F 82.3 °F 66.9 °F 64% 29.80 in 10.0 mi East 10.4 mph - N/A   Mostly Cloudy
9:54 PM 82.4 °F 84.6 °F 66.2 °F 58% 29.78 in 10.0 mi East 12.7 mph - 0.00 in Rain , Thunderstorm Light Thunderstorms and Rain
9:56 PM 81.0 °F 83.8 °F 68.0 °F 65% 29.75 in 10.0 mi East 15.0 mph - 0.00 in Rain , Thunderstorm Light Thunderstorms and Rain
10:22 PM 80.1 °F 82.9 °F 69.1 °F 69% 29.79 in 10.0 mi ESE 8.1 mph - 0.01 in Rain , Thunderstorm Light Rain
10:41 PM 80.1 °F 83.2 °F 70.0 °F 71% 29.80 in 10.0 mi Variable 3.5 mph - 0.01 in Rain , Thunderstorm Light Thunderstorms and Rain
10:56 PM 79.0 °F - 71.1 °F 77% 29.76 in 10.0 mi North 6.9 mph - 0.02 in Rain , Thunderstorm Light Thunderstorms and Rain
11:09 PM 72.0 °F - 64.9 °F 78% 29.79 in 4.0 mi NNW 28.8 mph 36.8 mph 0.04 in Rain , Thunderstorm Thunderstorms and Rain
11:12 PM 71.1 °F - 64.0 °F 78% 29.79 in 1.5 mi North 25.3 mph 46.0 mph 0.20 in Rain , Thunderstorm Heavy Thunderstorms and Rain
11:15 PM 72.0 °F - 66.0 °F 81% 29.82 in 1.0 mi SW 12.7 mph 46.0 mph 0.37 in Rain , Thunderstorm Heavy Thunderstorms and Rain
11:25 PM 71.1 °F - 64.9 °F 81% 29.82 in 1.2 mi Variable 3.5 mph 16.1 mph 0.49 in Rain , Thunderstorm Heavy Thunderstorms and Rain
11:27 PM 71.1 °F - 64.9 °F 81% 29.82 in 2.0 mi Calm Calm - 0.49 in Rain , Thunderstorm Heavy Thunderstorms and Rain
11:36 PM 70.0 °F - 64.9 °F 84% 29.81 in 4.0 mi SE 6.9 mph - 0.53 in Rain , Thunderstorm Thunderstorms and Rain
11:44 PM 70.0 °F - 66.0 °F 87% 29.82 in 7.0 mi East 3.5 mph - 0.54 in Rain , Thunderstorm Rain
11:56 PM 70.0 °F - 64.9 °F 84% 29.79 in 7.0 mi NE 5.8 mph - 0.56 in Rain Rain